Regional Weather Roundup
Issued by NWS Midland/Odessa, TX

Skip options and go directly to product.
Home | Oldest Version | Previous Version | Current Version | All | Text Only | Save Text | Print | Product List | Glossary Off

Skip product version selection by date and time.   

401
ASUS44 KMAF 271201
RWRMAF
MIDLAND AREA WEATHER ROUNDUP
NATIONAL WEATHER SERVICE MIDLAND TX
700 AM CDT WED MAY 27 2015

...IN SOUTHWEST TEXAS AND SOUTHEAST NEW MEXICO...

CITY           SKY/WX    TMP DP  RH WIND       PRES   REMARKS
ALPINE         CLEAR     58  51  77 W8        30.14S
ANDREWS        CLOUDY    65  65 100 E6        30.06R FOG
ARTESIA        CLEAR     54  36  50 W7        30.06R
BIG SPRING     CLOUDY    74  70  88 SE12      30.06R
CARLSBAD       CLEAR     55  45  68 W5        30.02R
DRYDEN           N/A     68  62  81 VRB5      30.00R
FORT STOCKTON  CLEAR     66  63  90 SE12      30.02R
GUAD PASS      CLEAR     66  40  38 NE9       30.15R
HOBBS          FOG       63  63 100 CALM      30.08R VSB 1
MARFA          CLEAR     52  45  76 N6        30.14R
MIDLAND AIRPK  CLOUDY    71  71 100 SE8       30.05R FOG
MIDLAND INTL   MOCLDY    69  68  96 SE10      30.04R FOG
ODESSA         MOCLDY    70  67  90 SE12      30.05R FOG
PECOS          CLEAR     62  58  88 CALM      29.99R
PRESIDIO       FAIR      72  55  55 N8        29.98R
SEMINOLE       CLOUDY    62  61  99 NE3       30.07R FOG
SNYDER         CLEAR     65  65  97 SE8       30.05R FOG
WINK           CLEAR     67  65  93 SE8       30.00R FOG
$$
...OTHER STATIONS IN TEXAS...

CITY           SKY/WX    TMP DP  RH WIND       PRES   REMARKS
ABILENE        CLEAR     68  65  90 S10       30.03R
AMARILLO       PTCLDY    58  55  90 NW5       30.10R
AUSTIN         LGT RAIN  67  66  97 SE5       30.02F
BROWNSVILLE    CLOUDY    78  75  90 SE9       29.98R
CORPUS CHRISTI MOCLDY    77  75  93 S7        29.98R
DALLAS FTW     MOCLDY    61  58  90 SW5       30.00R
DEL RIO        CLOUDY    77  73  87 E13G21    29.96R
EL PASO        PTCLDY    59  30  33 E5        30.03S
HOUSTON INT    TSTM      66  64  93 E13       30.10F FOG
LUBBOCK        CLOUDY    64  62  93 SE8       30.08R
SAN ANGELO     CLEAR     72  69  90 SE7       30.03R
SAN ANTONIO    CLOUDY    78  74  87 SE7       30.01S
WACO           MOCLDY    63  61  93 CALM      30.03R
WICHITA FALLS  NOT AVBL
$$
...OTHER LOCATIONS IN NEW MEXICO...

CITY           SKY/WX    TMP DP  RH WIND       PRES   REMARKS
ALAMAGORDO     CLEAR     57  30  35 CALM      30.06R
ALBUQUERQUE    MOCLDY    58  45  62 NW6       30.15R
CANNON AFB     PTCLDY    55  52  88 N6        30.10R
CLOVIS         CLEAR     54  48  82 N3        30.08R
HOLLOMAN AFB   CLEAR     55  34  45 NW6       30.05R
ROSWELL        CLEAR     54  44  69 CALM      30.05R
RUIDOSO        CLEAR     48  28  46 SW9       30.23S
SANTA FE       CLOUDY    48  42  80 N9        30.20R
TRUTH OR CONSE CLEAR     54  26  34 W7        30.10R
TUCUMCARI      MOCLDY    59  54  83 SE7       30.09R
$$

USA.gov is the U.S. government's official web portal to all federal, state and local government web resources and services.